Temperature
18 18 18 18 18 18 18 17 17 17 17 17 17 16 16 16 16 16 16 16 16 16 16 16 16 16 16 16 16 16 16 16 16 15 15 15 15 15 15 15 15 15 15
18 18 18 18 18 18 17 17 17 17 17 17 17 16 16 16 16 16 16 16 16 16 16 16 16 16 16 16 16 16 16 15 15 15 15 15 15 15 15 15 15 15 15
18 18 18 18 17 17 17 17 17 17 17 17 16 16 16 16 16 16 16 16 16 16 16 16 16 16 16 16 16 16 15 15 15 15 15 15 15 15 15 15 15 15 15
17 17 17 17 17 17 17 17 17 17 17 16 16 16 16 16 16 16 16 16 16 16 16 16 16 16 16 16 15 15 15 15 14 14 15 15 15 15 15 15 15 15 15
17 17 17 17 17 17 17 17 17 16 16 16 16 16 16 16 16 16 15 15 15 15 15 15 15 15 15 15 15 15 15 14 14 14 14 15 15 15 15 15 15 14 14
16 17 17 17 17 17 17 16 16 16 16 16 16 16 16 16 16 15 15 15 15 15 15 15 15 15 15 15 15 15 15 14 14 14 14 14 14 14 14 14 14 14 14
16 16 16 16 16 16 16 16 16 16 16 16 16 16 16 15 15 15 15 15 15 15 15 15 15 15 15 15 15 14 14 14 14 14 14 14 14 14 14 13 13 13 13
16 16 16 16 16 16 16 16 16 16 16 16 15 15 15 15 15 15 15 15 15 15 15 15 15 14 14 14 14 14 14 14 14 14 14 13 13 13 13 13 13 13 13
15 16 16 16 16 16 16 16 16 16 15 15 15 15 15 15 15 15 15 15 15 15 14 14 14 14 14 14 14 14 13 13 13 13 13 13 13 13 13 13 13 12 12
15 15 15 15 15 15 15 15 15 15 15 15 15 15 15 15 15 15 15 15 14 14 14 14 14 14 14 14 14 13 13 13 13 13 13 13 12 13 12 12 12 12 12
15 15 15 15 15 15 15 15 15 15 15 15 15 15 15 15 15 14 14 14 14 14 14 14 14 14 14 14 13 13 13 13 13 13 12 12 12 12 12 12 12 12 11
14 14 14 14 15 15 15 15 15 15 15 14 14 14 14 14 14 14 14 14 14 14 14 14 14 13 13 13 13 13 13 13 13 12 12 12 12 12 11 11 11 11 11
14 14 14 14 14 14 14 14 14 14 14 14 14 14 14 14 14 14 14 14 14 14 13 13 13 13 13 13 13 13 13 12 12 12 12 12 12 11 11 11 11 11 10
14 14 14 14 14 14 14 14 14 14 14 14 14 14 14 14 14 14 14 13 13 13 13 13 13 13 13 13 12 12 12 12 12 12 12 11 11 11 11 10 10 10 10
14 14 14 14 14 14 14 14 14 14 14 14 14 14 14 14 14 13 13 13 13 13 13 13 12 12 12 12 12 12 12 12 12 11 11 11 11 10 10 10 10 9 9
14 14 14 14 14 14 14 14 14 14 14 14 13 13 13 13 13 13 13 13 13 13 12 12 12 12 12 12 12 12 12 12 11 11 11 11 10 10 10 9 9 9 9
14 14 14 14 13 13 13 13 13 13 13 13 13 13 13 13 13 13 13 13 12 12 12 12 12 12 12 12 12 12 11 11 11 11 10 10 10 9 9 9 9 8 8
14 14 14 13 13 13 13 13 13 13 13 13 13 13 13 13 13 13 13 12 12 12 12 12 12 12 12 11 11 11 11 11 11 10 10 9 9 9 9 9 8 8 8
13 13 13 13 13 13 13 13 13 13 13 13 13 13 13 13 13 13 12 12 12 12 12 12 11 11 11 11 11 11 11 10 10 10 9 9 9 8 8 8 8 8 7
13 13 13 13 13 13 12 12 12 12 12 12 12 12 12 12 12 12 12 12 12 12 12 11 11 11 11 10 10 10 10 10 10 9 9 8 8 8 8 7 7 7 7
13 13 13 12 12 12 12 12 12 12 12 12 12 12 12 12 12 12 12 12 11 11 11 11 11 11 10 10 10 10 10 9 9 9 8 8 8 7 7 7 7 7 7
12 12 12 12 12 12 12 12 12 12 12 12 12 12 12 12 12 12 11 11 11 11 11 10 10 10 10 9 8 8 8 8 8 8 8 7 7 7 7 6 6 6 6
12 12 12 12 12 12 12 12 11 11 11 11 11 11 11 11 11 11 11 11 11 11 10 10 10 9 9 9 8 7 6 6 6 7 7 7 6 6 6 6 6 6 6
12 12 12 12 12 12 11 11 12 12 11 11 11 11 11 11 11 11 11 10 10 10 10 9 9 9 8 8 8 7 6 6 6 6 6 6 6 6 6 6 6 5 5
11 11 11 11 11 11 11 11 11 11 11 11 11 11 11 11 10 10 10 10 10 10 9 9 9 8 8 8 7 7 6 6 5 5 5 6 6 6 5 5 5 5 5
11 11 11 11 11 11 11 11 11 11 11 11 11 11 10 10 10 10 10 10 9 9 9 8 8 8 8 7 7 6 6 5 5 4 4 5 5 5 5 5 5 5 4
Wind_Speed
11 14 16 17 16 16 15 15 15 15 15 15 15 15 15 15 15 15 15 15 16 16 16 15 16 16 16 16 15 15 15 14 14 14 14 15 16 16 16 16 15 13 15
15 18 18 17 17 16 16 16 15 15 15 15 15 15 15 15 15 15 15 15 15 16 16 16 16 15 15 15 15 14 14 13 12 12 13 13 15 15 15 15 15 13 14
17 19 18 18 17 17 16 16 16 16 16 16 15 15 15 15 15 14 15 15 15 16 15 15 15 15 15 14 14 13 12 11 10 11 11 11 13 15 15 14 14 13 13
17 18 17 18 18 17 17 17 16 16 15 15 15 15 15 15 15 15 15 15 15 15 15 15 15 15 14 14 13 12 11 10 10 10 11 12 12 13 13 13 13 12 12
16 17 18 19 18 17 17 17 16 16 15 15 14 14 14 14 14 15 15 15 15 15 15 15 14 14 14 13 12 11 11 10 10 11 12 13 12 12 12 12 12 12 12
15 18 19 18 18 18 17 17 16 16 15 15 15 15 14 14 14 14 15 15 15 15 14 14 14 13 12 12 11 10 10 10 9 11 12 12 11 11 12 11 11 11 11
15 18 18 18 18 18 17 17 16 16 16 15 15 15 15 15 15 15 15 15 15 14 14 13 13 12 12 11 11 10 10 9 9 11 11 11 11 11 11 11 11 11 11
15 17 18 18 18 18 18 17 16 16 16 16 16 16 16 15 15 14 14 14 14 13 13 12 12 12 11 11 10 10 10 10 9 10 11 11 10 11 11 11 11 11 11
15 15 15 16 17 18 17 17 17 16 17 16 16 16 15 15 14 14 13 13 13 12 12 11 11 10 10 9 9 9 10 10 10 9 9 9 10 10 10 10 10 10 10
12 12 12 14 15 15 16 17 17 17 16 16 16 15 15 14 14 13 13 13 12 11 11 10 9 9 9 8 7 7 8 9 9 9 9 8 9 10 10 10 10 10 10
11 11 11 11 13 14 15 16 16 16 16 15 14 14 12 12 12 12 12 12 11 10 9 8 7 7 6 6 6 7 7 7 9 8 8 8 9 9 10 10 11 10 10
11 10 9 10 11 12 13 13 12 12 12 11 11 10 10 10 11 11 11 11 10 9 7 6 5 4 4 4 5 6 6 7 7 7 8 8 8 9 10 10 11 10 10
10 10 9 9 10 9 9 10 9 9 9 10 10 10 10 10 10 9 8 8 7 6 5 4 3 4 5 5 6 6 7 7 7 7 7 8 8 9 10 10 11 11 11
10 10 8 9 8 8 9 8 8 8 7 8 9 10 9 6 6 6 6 5 5 4 3 4 4 4 5 5 6 6 6 6 5 6 6 7 8 9 10 11 11 11 12
10 10 9 8 8 8 7 7 8 7 7 9 9 9 9 6 5 5 5 5 5 5 4 4 4 5 5 6 6 6 5 5 5 5 4 5 6 8 9 11 11 11 12
11 10 9 9 8 8 6 6 7 8 9 9 8 9 9 8 6 5 5 5 5 5 5 4 5 4 4 4 4 5 4 4 4 4 4 4 5 7 9 11 11 12 12
11 10 10 9 9 8 7 7 8 9 9 8 8 9 9 9 7 6 4 4 4 5 5 5 5 4 3 3 3 4 4 4 3 3 4 4 5 6 8 10 11 12 13
11 11 10 9 9 8 7 7 7 9 9 8 9 9 9 9 8 7 5 3 5 5 5 3 2 2 2 2 2 2 2 2 2 2 3 4 4 5 7 9 11 12 13
10 11 11 10 9 8 8 7 8 9 8 8 9 8 8 8 8 7 5 4 5 4 3 3 3 2 2 3 2 2 2 2 1 2 2 2 3 5 6 8 10 12 13
10 11 11 10 9 9 7 6 6 6 6 8 8 7 8 7 7 7 5 4 4 3 2 2 3 3 2 2 3 3 3 3 1 1 1 2 3 4 6 7 8 9 12
9 10 11 10 9 8 6 6 5 4 4 4 6 8 7 7 7 6 4 4 3 2 1 2 2 2 2 3 2 2 3 3 1 1 1 2 3 5 6 7 7 8 9
8 9 10 10 9 8 6 5 4 5 4 4 5 7 7 6 6 5 4 3 3 2 2 2 2 1 2 2 1 2 3 4 3 3 2 2 3 4 5 7 8 8 9
8 8 9 10 10 9 8 7 6 5 4 3 3 3 5 6 6 5 4 3 3 2 2 2 2 2 1 2 2 1 1 2 4 3 3 3 3 4 4 6 7 8 9
7 7 8 9 9 9 9 8 9 6 5 4 4 3 4 6 5 5 5 4 3 2 2 1 2 1 1 1 2 1 0 1 1 4 4 3 4 5 5 6 7 8 9
7 7 7 8 8 8 8 8 8 6 5 5 5 5 4 4 5 5 4 4 3 2 2 2 2 1 1 1 1 2 2 2 2 2 6 6 6 5 5 6 6 7 9
6 7 7 8 8 8 8 8 8 8 7 7 6 5 4 3 3 4 4 3 2 2 2 1 1 0 0 1 1 1 1 1 2 3 5 7 7 6 6 5 5 5 8
Wind_Direction
122 128 131 128 124 119 115 113 111 109 106 103 100 98 95 92 91 88 86 85 84 82 80 78 75 73 71 69 68 67 65 64 64 64 63 60 58 57 55 51 48 49 48
127 129 130 128 125 120 117 113 110 108 106 105 101 99 98 94 92 89 87 86 84 83 81 79 76 73 71 69 68 66 65 62 62 63 63 61 59 57 54 51 50 48 46
126 128 129 127 125 121 118 114 111 108 106 105 102 100 98 96 93 90 87 87 86 83 81 79 77 75 72 69 66 64 61 58 56 54 57 63 61 55 53 50 47 45 44
124 127 129 127 125 122 119 116 113 111 108 106 104 102 100 97 94 91 88 87 85 84 82 81 78 75 72 68 65 60 55 50 47 49 57 58 57 52 49 46 44 43 40
121 124 126 127 125 122 120 116 115 112 110 109 106 103 102 99 95 92 89 87 85 84 81 79 77 73 70 67 63 57 49 42 40 52 59 59 55 49 47 44 41 39 36
121 120 125 126 125 122 120 117 115 113 110 108 106 103 101 99 96 93 90 88 86 85 82 78 75 71 68 65 61 52 40 33 40 56 57 57 52 47 44 42 39 36 31
121 120 126 124 124 122 121 119 116 114 110 106 103 101 100 99 95 92 90 88 86 84 81 78 75 70 65 61 56 45 32 29 51 60 58 57 51 46 41 38 37 34 31
121 122 126 124 122 121 120 119 117 115 110 107 104 101 98 97 95 93 91 90 88 84 81 77 74 70 64 58 50 38 26 30 44 57 57 54 49 44 38 34 31 28 26
120 124 127 126 122 120 120 118 115 113 110 107 104 101 99 97 94 93 92 91 88 85 81 76 72 69 63 57 47 33 26 37 42 49 53 48 45 39 32 28 25 21 18
123 127 129 129 126 122 118 117 116 114 112 109 106 102 99 96 93 92 90 89 87 83 80 77 73 69 63 53 38 24 27 33 42 46 50 45 40 34 28 24 20 15 11
127 130 131 129 127 124 123 121 117 115 114 112 110 109 104 100 96 91 90 90 87 81 77 77 74 69 61 47 27 23 33 39 47 47 45 40 33 28 22 19 14 10 7
138 133 131 125 125 128 128 126 124 122 122 118 117 113 102 97 97 95 93 92 87 82 75 73 74 63 44 35 22 23 36 45 48 47 40 35 27 22 17 13 9 5 2
136 128 125 124 126 126 125 128 124 122 121 117 114 111 103 99 100 97 94 91 89 83 70 61 59 44 42 35 35 35 35 45 48 46 38 33 25 18 13 9 7 5 2
133 129 125 124 121 119 122 123 120 116 111 107 110 109 105 98 95 96 92 93 86 73 61 54 54 42 40 38 43 43 38 44 53 54 42 31 22 13 8 5 3 1 357
139 136 132 128 125 120 119 123 118 113 109 107 104 102 100 95 92 88 82 78 72 64 50 46 49 42 38 36 39 38 37 45 52 56 48 30 17 8 2 359 357 355 352
145 141 136 133 128 124 119 115 111 111 111 108 102 102 103 100 94 89 79 70 63 52 45 48 49 43 31 33 30 31 27 36 41 45 48 30 12 3 358 354 351 350 347
146 141 139 136 129 125 118 115 114 114 112 106 105 105 102 101 95 91 83 70 62 54 47 51 49 47 34 25 13 17 21 24 24 37 35 27 15 2 353 349 346 344 343
145 144 141 140 133 126 119 115 113 113 111 108 108 106 103 104 100 90 81 66 61 54 46 42 44 35 21 12 356 344 356 6 5 35 39 28 13 0 350 344 340 338 338
148 145 142 138 136 128 121 115 111 111 108 109 108 105 104 102 101 95 87 76 64 57 44 28 33 31 15 3 341 328 321 319 324 24 27 18 7 358 350 341 335 332 332
147 144 143 140 139 134 125 116 107 105 105 106 104 105 105 102 100 93 86 81 73 63 44 39 39 25 16 341 329 327 306 293 290 23 339 345 345 344 341 336 332 329 327
145 145 146 146 144 141 139 135 127 126 118 108 106 112 108 105 102 95 85 77 71 71 64 60 51 30 9 350 354 327 308 295 285 338 318 322 326 328 328 327 327 327 326
149 151 150 151 150 148 145 138 132 130 125 120 109 112 117 113 109 104 92 84 73 72 56 48 52 40 6 9 17 347 334 327 321 301 294 300 307 321 320 324 321 322 322
153 156 159 157 155 151 144 135 129 114 110 114 126 125 118 122 116 110 103 92 78 85 82 52 54 60 4 340 22 63 36 295 312 295 289 299 322 318 313 317 315 319 321
162 158 158 156 153 153 150 150 148 148 151 155 151 143 130 127 124 117 108 99 84 74 84 62 49 34 51 330 340 15 344 266 321 310 303 309 317 313 312 320 318 314 319
156 155 157 153 152 153 155 155 154 152 149 138 135 140 140 129 127 121 112 98 86 80 78 64 54 28 33 347 333 328 326 330 293 285 300 310 314 303 308 309 310 315 322
147 148 153 156 155 155 156 159 161 155 150 144 146 152 153 146 131 124 119 106 98 88 85 78 80 59 359 343 329 335 326 319 308 302 294 304 307 305 304 300 305 316 326
Height
1508 1511 1513 1515 1518 1520 1522 1524 1525 1527 1528 1529 1530 1531 1532 1534 1535 1535 1536 1537 1537 1538 1538 1539 1539 1539 1540 1540 1540 1540 1540 1539 1539 1539 1539 1539 1539 1538 1538 1538 1537 1537 1537
1507 1510 1513 1516 1518 1520 1522 1524 1526 1528 1529 1530 1532 1533 1534 1535 1536 1537 1537 1538 1539 1539 1540 1540 1540 1541 1541 1541 1541 1541 1540 1540 1540 1540 1540 1539 1539 1539 1538 1538 1538 1537 1537
1507 1510 1513 1516 1519 1521 1523 1525 1527 1528 1530 1531 1533 1534 1535 1536 1537 1538 1538 1539 1540 1540 1541 1541 1542 1542 1542 1542 1542 1542 1542 1542 1541 1541 1540 1540 1540 1539 1539 1538 1538 1538 1537
1507 1510 1513 1516 1519 1521 1524 1526 1528 1529 1531 1533 1534 1535 1536 1537 1538 1539 1540 1540 1541 1541 1542 1542 1543 1543 1543 1543 1543 1543 1543 1543 1542 1542 1541 1541 1540 1540 1539 1538 1538 1537 1537
1508 1511 1514 1517 1519 1522 1524 1526 1528 1530 1532 1534 1535 1536 1537 1538 1539 1540 1541 1542 1542 1543 1543 1544 1544 1544 1544 1544 1544 1544 1544 1543 1543 1542 1542 1541 1541 1540 1539 1539 1538 1537 1537
1509 1511 1514 1517 1520 1522 1525 1527 1529 1531 1533 1534 1536 1537 1538 1539 1540 1541 1542 1543 1543 1544 1544 1545 1545 1545 1545 1545 1545 1545 1544 1544 1543 1543 1542 1542 1541 1540 1539 1539 1538 1537 1536
1509 1512 1515 1518 1520 1523 1525 1527 1530 1531 1533 1535 1537 1538 1539 1540 1541 1542 1543 1544 1544 1545 1545 1545 1546 1546 1546 1546 1545 1545 1545 1545 1544 1543 1542 1542 1541 1540 1540 1539 1538 1537 1536
1509 1512 1515 1518 1521 1523 1526 1528 1530 1532 1534 1536 1537 1539 1540 1541 1542 1543 1544 1545 1545 1546 1546 1546 1546 1546 1546 1546 1546 1546 1546 1545 1544 1543 1543 1542 1541 1540 1539 1538 1537 1536 1535
1510 1512 1516 1519 1521 1524 1526 1529 1531 1533 1535 1536 1538 1539 1541 1542 1543 1544 1545 1545 1546 1546 1546 1547 1547 1547 1547 1547 1546 1546 1546 1545 1544 1543 1543 1542 1541 1540 1539 1538 1537 1536 1534
1510 1513 1516 1519 1521 1524 1526 1529 1531 1533 1535 1537 1539 1540 1541 1542 1543 1544 1545 1546 1546 1546 1547 1547 1547 1547 1547 1547 1547 1546 1546 1545 1544 1543 1542 1541 1541 1539 1538 1537 1536 1534 1533
1511 1513 1516 1519 1521 1524 1526 1529 1531 1533 1535 1537 1539 1540 1541 1543 1543 1544 1545 1546 1546 1547 1547 1547 1547 1547 1547 1547 1547 1546 1545 1544 1544 1543 1542 1541 1540 1539 1537 1536 1534 1533 1531
1511 1513 1516 1518 1521 1524 1526 1529 1531 1533 1535 1537 1539 1540 1542 1543 1544 1544 1545 1546 1547 1547 1547 1547 1547 1547 1547 1546 1546 1546 1545 1544 1543 1542 1541 1540 1539 1537 1536 1534 1533 1531 1530
1510 1513 1516 1518 1521 1524 1526 1529 1531 1533 1535 1537 1539 1540 1542 1543 1544 1545 1545 1546 1546 1547 1547 1547 1547 1547 1547 1546 1546 1545 1544 1543 1543 1541 1540 1539 1538 1536 1535 1533 1531 1530 1528
1509 1512 1515 1518 1521 1523 1526 1528 1531 1533 1535 1537 1539 1540 1541 1542 1543 1544 1545 1546 1546 1547 1547 1547 1547 1547 1546 1546 1545 1544 1544 1543 1542 1540 1539 1538 1536 1535 1533 1531 1530 1528 1526
1508 1511 1514 1517 1520 1523 1525 1528 1530 1533 1535 1537 1538 1540 1541 1542 1543 1544 1545 1545 1546 1546 1546 1546 1546 1546 1546 1545 1544 1544 1543 1542 1540 1539 1538 1536 1535 1533 1532 1530 1528 1526 1524
1507 1510 1513 1516 1519 1522 1525 1527 1529 1532 1534 1536 1538 1539 1540 1541 1542 1543 1544 1544 1545 1545 1546 1546 1545 1545 1544 1544 1543 1542 1541 1540 1539 1538 1536 1535 1534 1532 1530 1528 1526 1524 1522
1505 1508 1511 1515 1518 1521 1523 1526 1529 1531 1533 1535 1537 1539 1540 1541 1542 1542 1543 1544 1544 1545 1545 1545 1545 1544 1543 1543 1542 1541 1540 1539 1538 1536 1535 1534 1532 1530 1528 1527 1524 1522 1520
1503 1506 1510 1513 1516 1519 1522 1525 1527 1530 1532 1534 1536 1538 1539 1540 1541 1541 1542 1543 1543 1544 1544 1544 1543 1543 1542 1541 1540 1539 1538 1537 1536 1535 1533 1532 1530 1528 1526 1524 1522 1520 1517
1501 1504 1508 1511 1514 1517 1521 1524 1526 1529 1531 1533 1535 1537 1538 1539 1540 1541 1541 1542 1543 1543 1543 1543 1542 1541 1540 1539 1538 1538 1537 1535 1534 1533 1532 1530 1529 1527 1524 1522 1520 1517 1515
1499 1502 1506 1509 1513 1516 1519 1522 1524 1527 1530 1532 1534 1536 1537 1538 1539 1540 1540 1541 1541 1542 1541 1541 1541 1540 1539 1538 1536 1535 1535 1533 1532 1531 1530 1529 1527 1525 1522 1520 1517 1515 1512
1497 1500 1503 1506 1510 1513 1516 1519 1522 1525 1528 1530 1533 1534 1536 1537 1538 1539 1539 1540 1540 1540 1540 1540 1539 1538 1537 1536 1534 1533 1532 1531 1530 1530 1528 1526 1525 1523 1520 1517 1515 1512 1509
1494 1497 1501 1504 1507 1511 1514 1517 1521 1524 1526 1529 1531 1533 1534 1535 1536 1537 1538 1538 1538 1538 1538 1538 1537 1536 1536 1535 1534 1531 1530 1529 1528 1527 1526 1524 1522 1520 1518 1515 1512 1509 1506
1491 1494 1498 1501 1505 1508 1512 1515 1518 1521 1524 1526 1529 1531 1532 1534 1535 1536 1536 1537 1537 1537 1536 1536 1536 1535 1534 1534 1534 1533 1531 1528 1525 1523 1523 1522 1520 1517 1515 1512 1509 1506 1503
1488 1492 1495 1499 1502 1506 1509 1512 1515 1517 1520 1523 1526 1528 1530 1532 1533 1534 1534 1535 1535 1535 1535 1534 1534 1534 1533 1532 1532 1532 1532 1530 1527 1522 1520 1519 1517 1515 1512 1510 1507 1503 1500
1485 1489 1492 1496 1499 1503 1506 1509 1512 1515 1518 1521 1524 1526 1528 1529 1531 1531 1532 1532 1533 1533 1533 1532 1532 1532 1531 1531 1530 1529 1529 1528 1526 1523 1518 1514 1513 1511 1509 1506 1503 1500 1497
1482 1486 1489 1493 1496 1500 1503 1507 1510 1512 1515 1518 1520 1522 1525 1526 1528 1529 1530 1530 1531 1531 1531 1530 1530 1530 1529 1529 1528 1527 1526 1525 1524 1521 1517 1512 1509 1507 1505 1503 1500 1497 1494